TimeIST,TemperatureF,Dew PointF,Humidity,Sea Level PressureIn,VisibilityMPH,Wind Direction,Wind SpeedMPH,Gust SpeedMPH,PrecipitationIn,Events,Conditions,WindDirDegrees,DateUTC
12:10 AM,68.0,57.2,68,29.89,1.0,Calm,Calm,-,N/A,,Haze,0,2013-01-06 18:40:00
12:40 AM,68.0,57.2,68,29.86,1.0,North,3.5,-,N/A,,Haze,10,2013-01-06 19:10:00
1:10 AM,66.2,57.2,73,29.86,1.4,North,3.5,-,N/A,,Haze,10,2013-01-06 19:40:00
1:40 AM,66.2,55.4,68,29.86,1.4,NNE,3.5,-,N/A,,Haze,20,2013-01-06 20:10:00
2:10 AM,64.4,55.4,73,29.86,1.4,Calm,Calm,-,N/A,,Haze,0,2013-01-06 20:40:00
2:30 AM,58,54,80,29.87,1,Calm,Calm,,,,Haze,,2013-01-06 21:00:00
2:40 AM,64.4,53.6,68,29.86,1.3,Calm,Calm,-,N/A,,Haze,0,2013-01-06 21:10:00
3:10 AM,66.2,53.6,64,29.86,1.3,NNE,3.5,-,N/A,,Haze,20,2013-01-06 21:40:00
3:40 AM,64.4,53.6,68,29.86,1.3,Calm,Calm,-,N/A,,Haze,0,2013-01-06 22:10:00
4:10 AM,62.6,53.6,72,29.86,1.3,Calm,Calm,-,N/A,,Haze,0,2013-01-06 22:40:00
4:40 AM,60.8,53.6,77,29.86,1.3,Calm,Calm,-,N/A,,Haze,0,2013-01-06 23:10:00
5:10 AM,60.8,53.6,77,29.86,1.1,Calm,Calm,-,N/A,,Haze,0,2013-01-06 23:40:00
5:30 AM,55,52,86,29.87,1,Calm,Calm,,,,Haze,,2013-01-07 00:00:00
6:10 AM,60.8,53.6,77,29.89,0.9,Calm,Calm,-,N/A,,Mist,0,2013-01-07 00:40:00
6:40 AM,60.8,53.6,77,29.89,0.9,SE,3.5,-,N/A,,Mist,140,2013-01-07 01:10:00
7:10 AM,60.8,53.6,77,29.89,0.9,Calm,Calm,-,N/A,,Partly Cloudy,0,2013-01-07 01:40:00
7:40 AM,59.0,51.8,77,29.92,0.7,Calm,Calm,-,N/A,,Partly Cloudy,0,2013-01-07 02:10:00
8:30 AM,57,54,86,29.94,1,Calm,Calm,,,,Haze,,2013-01-07 03:00:00
9:40 AM,71.6,44.6,38,29.98,1.6,NNE,6.9,-,N/A,,Smoke,30,2013-01-07 04:10:00
10:40 AM,75.2,46.4,36,29.98,1.9,NNE,6.9,-,N/A,,Smoke,30,2013-01-07 05:10:00
11:10 AM,77.0,46.4,34,29.95,1.9,NE,6.9,-,N/A,,Smoke,40,2013-01-07 05:40:00
11:30 AM,81,47,20,29.94,1,East,3.5,,,,Smoke,90,2013-01-07 06:00:00
11:40 AM,78.8,48.2,34,29.95,1.9,NE,4.6,-,N/A,,Smoke,50,2013-01-07 06:10:00
12:10 PM,80.6,46.4,30,29.92,1.9,NNE,4.6,-,N/A,,Smoke,20,2013-01-07 06:40:00
12:40 PM,82.4,46.4,28,29.89,1.9,West,5.8,-,N/A,,Smoke,260,2013-01-07 07:10:00
1:10 PM,82.4,53.6,37,29.89,1.9,WSW,9.2,-,N/A,,Smoke,250,2013-01-07 07:40:00
1:40 PM,80.6,53.6,39,29.86,2.5,WSW,10.4,-,N/A,,Smoke,250,2013-01-07 08:10:00
2:10 PM,80.6,53.6,39,29.86,2.5,West,10.4,-,N/A,,Smoke,260,2013-01-07 08:40:00
2:30 PM,84,56,28,29.85,1,West,5.8,,,,Smoke,270,2013-01-07 09:00:00
2:40 PM,80.6,55.4,42,29.83,2.5,WSW,11.5,-,N/A,,Smoke,250,2013-01-07 09:10:00
3:10 PM,80.6,55.4,42,29.83,2.5,West,10.4,-,N/A,,Smoke,270,2013-01-07 09:40:00
3:40 PM,80.6,53.6,39,29.83,2.5,WNW,9.2,-,N/A,,Smoke,290,2013-01-07 10:10:00
4:10 PM,80.6,53.6,39,29.83,2.5,West,10.4,-,N/A,,Smoke,280,2013-01-07 10:40:00
4:40 PM,80.6,57.2,45,29.83,2.5,NW,10.4,-,N/A,,Smoke,310,2013-01-07 11:10:00
5:10 PM,78.8,55.4,44,29.86,2.5,NW,9.2,-,N/A,,Smoke,320,2013-01-07 11:40:00
5:30 PM,79,57,36,29.85,1,NNW,3.5,,,,Smoke,340,2013-01-07 12:00:00
5:40 PM,78.8,55.4,44,29.86,2.5,NW,8.1,-,N/A,,Smoke,320,2013-01-07 12:10:00
6:10 PM,77.0,53.6,44,29.86,2.5,NW,8.1,-,N/A,,Smoke,320,2013-01-07 12:40:00
6:40 PM,75.2,53.6,47,29.86,2.5,NW,4.6,-,N/A,,Smoke,310,2013-01-07 13:10:00
7:10 PM,75.2,55.4,50,29.86,2.2,WNW,3.5,-,N/A,,Smoke,300,2013-01-07 13:40:00
8:10 PM,75.2,57.2,53,29.89,1.9,NNW,6.9,-,N/A,,Smoke,330,2013-01-07 14:40:00
8:30 PM,72,58,51,29.90,1,North,3.5,,,,Smoke,0,2013-01-07 15:00:00
8:40 PM,73.4,55.4,53,29.89,1.9,NNW,4.6,-,N/A,,Smoke,330,2013-01-07 15:10:00
9:10 PM,73.4,55.4,53,29.92,1.9,NNW,3.5,-,N/A,,Smoke,330,2013-01-07 15:40:00
9:40 PM,73.4,53.6,50,29.92,1.9,North,4.6,-,N/A,,Smoke,350,2013-01-07 16:10:00
10:10 PM,71.6,55.4,57,29.92,1.7,Calm,Calm,-,N/A,,Smoke,0,2013-01-07 16:40:00
10:40 PM,69.8,57.2,64,29.89,1.2,Calm,Calm,-,N/A,,Smoke,0,2013-01-07 17:10:00
11:30 PM,62,56,75,29.90,1,Calm,Calm,,,,Haze,,2013-01-07 18:00:00
11:40 PM,69.8,55.4,60,29.89,1.0,Calm,Calm,-,N/A,,Smoke,0,2013-01-07 18:10:00